Weather History for Fullerton, CA

Change the Weather History Date:

Sunday, March 16, 2014

  Actual Average Record
Temperature  
Mean Temperature 73 °F 60 °F  
Max Temperature 93 °F 70 °F 93 °F (2014)
Min Temperature 53 °F 50 °F 42 °F (2002)
Degree Days  
Heating Degree Days 0 5  
Month to date heating degree days 28 95  
Since 1 July heating degree days 526 1017  
Cooling Degree Days 8 0  
Month to date cooling degree days 31 8  
Year to date cooling degree days 51 17  
Growing Degree Days 22 (Base 50)    
Moisture  
Dew Point 36 °F    
Average Humidity 39    
Maximum Humidity 71    
Minimum Humidity 7    
Precipitation  
Precipitation 0.00 in 0.04 in 0.38 in (2003)
Month to date precipitation 0.68 1.64  
Year to date precipitation 3.01 7.92  
Since 1 July precipitation 4.32 12.15  
Snow  
Snow 0.00 in - - ()
Month to date snowfall 0.0  
Year to date snowfall 0.0  
Since 1 July snowfall 0.0  
Snow Depth 0.00 in    
Sea Level Pressure  
Sea Level Pressure 30.14 in    
Wind  
Wind Speed 3 mph (West)    
Max Wind Speed 13 mph    
Max Gust Speed 19 mph    
Visibility 10 miles    
Events      
T = Trace of Precipitation, MM = Missing Value Source: NWS Daily Summary

Daily Weather History Graph

Daily Weather History Graph

Search for Another Location

Airport:

Trip Planner

Search our weather history database for the weather conditions in past years. The results will help you decide how hot, cold, wet, or windy it might be!

Date:

Astronomy

Mar. 16, 2014 Rise Set
Actual Time 7:00 AM PDT 7:00 PM PDT
Civil Twilight 6:36 AM PDT 7:25 PM PDT
Nautical Twilight 6:07 AM PDT 7:54 PM PDT
Astronomical Twilight 5:37 AM PDT 8:23 PM PDT
Moon 7:20 PM PDT (3/16) 6:48 AM PDT (3/16)
Length of Visible Light 12h 49m
Length of Day
11h 59m
Full, 100% of the Moon is Illuminated
Mar 16
Full
Mar 23
Last Quarter
Mar 30
New
Apr 7
First Quarter
Apr 15
Full

Hourly Weather History & Observations

Time (PDT) Temp. Dew Point Humidity Pressure Visibility Wind Dir Wind Speed Gust Speed Precip Events Conditions
12:53 AM 61.0 °F 44.1 °F 54% 30.19 in 10.0 mi Calm Calm - N/A   Clear
1:53 AM 59.0 °F 46.0 °F 62% 30.19 in 10.0 mi Calm Calm - N/A   Clear
2:53 AM 59.0 °F 41.0 °F 51% 30.19 in 10.0 mi East 3.5 mph - N/A   Clear
3:53 AM 57.9 °F 42.1 °F 56% 30.17 in 10.0 mi Calm Calm - N/A   Clear
4:53 AM 54.0 °F 44.1 °F 69% 30.18 in 10.0 mi Calm Calm - N/A   Clear
5:53 AM 55.0 °F 43.0 °F 64% 30.17 in 10.0 mi Calm Calm - N/A   Clear
6:53 AM 54.0 °F 41.0 °F 62% 30.18 in 10.0 mi Calm Calm - N/A   Clear
7:53 AM 55.9 °F 44.1 °F 64% 30.20 in 10.0 mi Calm Calm - N/A   Clear
8:53 AM 66.9 °F 39.9 °F 37% 30.22 in 10.0 mi Calm Calm - N/A   Clear
9:53 AM 73.9 °F 36.0 °F 25% 30.21 in 10.0 mi Calm Calm - N/A   Clear
10:53 AM 82.0 °F 37.9 °F 21% 30.20 in 10.0 mi West 4.6 mph - N/A   Clear
11:53 AM 88.0 °F 30.9 °F 13% 30.19 in 10.0 mi WNW 3.5 mph - N/A   Clear
12:53 PM 91.0 °F 27.0 °F 10% 30.16 in 10.0 mi WSW 5.8 mph - N/A   Clear
1:53 PM 91.9 °F 25.0 °F 9% 30.13 in 10.0 mi Variable 4.6 mph - N/A   Clear
2:53 PM 91.0 °F 19.9 °F 7% 30.11 in 10.0 mi SSW 12.7 mph - N/A   Clear
3:53 PM 90.0 °F 19.9 °F 8% 30.09 in 10.0 mi SW 9.2 mph 17.3 mph N/A   Clear
4:53 PM 90.0 °F 28.0 °F 11% 30.07 in 10.0 mi West 9.2 mph - N/A   Clear
5:53 PM 84.0 °F 30.9 °F 15% 30.07 in 10.0 mi WNW 8.1 mph - N/A   Clear
6:53 PM 79.0 °F 30.9 °F 17% 30.08 in 10.0 mi WNW 4.6 mph - N/A   Clear
7:53 PM 75.0 °F 32.0 °F 21% 30.08 in 10.0 mi Calm Calm - N/A   Clear
8:53 PM 73.0 °F 35.1 °F 25% 30.09 in 10.0 mi Calm Calm - N/A   Clear
9:53 PM 69.1 °F 39.9 °F 35% 30.09 in 10.0 mi Calm Calm - N/A   Clear
10:53 PM 64.9 °F 44.1 °F 47% 30.09 in 10.0 mi Calm Calm - N/A   Clear
11:53 PM 63.0 °F 44.1 °F 50% 30.08 in 10.0 mi Calm Calm - N/A   Clear